Regional Weather Roundup
Issued by NWS

Home | Current Version | Previous Version | Graphics & Text | Print | Product List | Glossary On
Versions: 1 2 3 4 5 6 7 8 9 10 11 12 13 14 15 16 17 18 19 20 21 22 23 24 25 26 27 28 29 30 31 32 33 34 35 36 37 38 39 40 41 42 43 44 45 46 47 48 49 50
824
ASUS44 KJAN 221710
RWRMS

MISSISSIPPI HOURLY WEATHER ROUNDUP
NATIONAL WEATHER SERVICE JACKSON MS
1200 PM CDT WED OCT 22 2014

NOTE: "FAIR: INDICATES FEW OR NO CLOUDS BELOW 12,000 FEET WITH NO
SIGNIFICANT WEATHER AND/OR OBSTRUCTIONS TO VISIBILITY.

MSZ001>002-007>008-010>013-018>021-025>028-034>036-221800-
NORTHWEST MISSISSIPPI

CITY           SKY/WX    TMP DP  RH WIND       PRES   REMARKS
CLARKSDALE     FAIR      64  46  52 N10       30.23F
CLEVELAND      FAIR      68  50  52 NE9       30.21S
GREENWOOD        N/A    N/A N/A N/A MISG      30.19F
GREENVILLE     SUNNY     69  47  45 NE10      30.20F
GRENADA          N/A    N/A N/A N/A MISG        N/A
OLIVE BRANCH   SUNNY     61  43  51 E9        30.26S
OXFORD         FAIR      61  41  48 E7G17     30.24F
TUNICA         SUNNY     64  43  45 NE10      30.23F
$$

MSZ003>006-009-014>017-022>024-029>033-037>039-221800-
NORTHEAST MISSISSIPPI

CITY           SKY/WX    TMP DP  RH WIND       PRES   REMARKS
COLUMBUS AFB   SUNNY     64  44  48 N10       30.20F
CORINTH        FAIR      63  39  42 NE10G17   30.23F
GOLDN TRIANGLE SUNNY     64  41  42 E12       30.19F
STARKVILLE     FAIR      64  43  45 N6        30.20S
TUPELO         SUNNY     63  43  48 NE13      30.22F
$$

MSZ040-058-221800-
CENTRAL MISSISSIPPI

CITY           SKY/WX    TMP DP  RH WIND       PRES   REMARKS
JACKSON INTL   SUNNY     72  50  45 NE9       30.16F
JACKSON HAWKNS SUNNY     71  48  43 NE9G17    30.17S
MERIDIAN KEY   SUNNY     68  48  48 NE8G16    30.16F
MERIDIAN NAS   SUNNY     67  47  48 VRB7      30.16F
RAYMOND        FAIR      72  66  83 E6        30.16F
VICKSBURG      SUNNY     74  51  44 NE10      30.17S
$$

MSZ059>079-221800-
SOUTH MISSISSIPPI

CITY           SKY/WX    TMP DP  RH WIND       PRES   REMARKS
BROOKHAVEN     FAIR      72  48  43 NE10      30.16F
HATTIESBURG    SUNNY     75  50  41 NE9       30.13F
MCCOMB         SUNNY     73  48  41 VRB7      30.13F
NATCHEZ        MOSUNNY   72  52  49 E12       30.15F
PINE BELT      SUNNY     73  48  40 E9        30.15F
$$

MSZ080>082-221800-
COASTAL MISSISSIPPI

CITY           SKY/WX    TMP DP  RH WIND       PRES   REMARKS
BAY ST LOUIS   SUNNY     75  46  35 NE6       30.10F
BILOXI         SUNNY     77  51  39 NE9       30.09F
PASCAGOULA     SUNNY     76  50  40 NE10      30.09F
GULFPORT       SUNNY     76  50  40 NE12      30.09F
$$



USA.gov is the U.S. government's official web portal to all federal, state and local government web resources and services.